Time,TemperatureF,DewpointF,PressureIn,WindDirection,WindDirectionDegrees,WindSpeedMPH,WindSpeedGustMPH,Humidity,HourlyPrecipIn,Conditions,Clouds,dailyrainin,SoftwareType,DateUTC
2013-08-05 00:00:00,59.7,48.1,29.96,West,270,0.4,2.7,65,0.00,,,0.00,WUHU216HW,2013-08-05 04:00:00,
2013-08-05 00:01:00,59.7,48.5,29.96,West,270,1.3,2.7,66,0.00,,,0.00,WUHU216HW,2013-08-05 04:01:00,
2013-08-05 00:02:00,59.6,48.4,29.96,NW,315,0.4,2.7,66,0.00,,,0.00,WUHU216HW,2013-08-05 04:02:00,
2013-08-05 00:04:00,59.6,48.4,29.96,WSW,248,1.1,2.7,66,0.00,,,0.00,WUHU216HW,2013-08-05 04:04:00,
2013-08-05 00:09:00,59.6,48.8,29.96,WSW,248,2.5,2.7,67,0.00,,,0.00,WUHU216HW,2013-08-05 04:09:00,
2013-08-05 00:14:00,59.2,48.4,29.96,West,270,1.8,2.7,67,0.00,,,0.00,WUHU216HW,2013-08-05 04:14:00,
2013-08-05 00:19:00,59.0,48.2,29.96,WSW,248,1.8,2.7,67,0.00,,,0.00,WUHU216HW,2013-08-05 04:19:00,
2013-08-05 00:24:00,58.7,47.5,29.96,WNW,293,1.6,2.7,66,0.00,,,0.00,WUHU216HW,2013-08-05 04:24:00,
2013-08-05 00:29:00,58.5,47.7,29.96,NW,315,1.1,3.4,67,0.00,,,0.00,WUHU216HW,2013-08-05 04:29:00,
2013-08-05 00:34:00,58.5,48.1,29.96,West,270,1.1,3.4,68,0.00,,,0.00,WUHU216HW,2013-08-05 04:34:00,
2013-08-05 00:39:00,58.1,47.7,29.96,NNW,338,2.5,2.5,68,0.00,,,0.00,WUHU216HW,2013-08-05 04:39:00,
2013-08-05 00:44:00,58.1,47.7,29.96,West,270,1.8,2.5,68,0.00,,,0.00,WUHU216HW,2013-08-05 04:44:00,
2013-08-05 00:49:00,58.1,47.7,29.96,West,270,1.3,3.8,68,0.00,,,0.00,WUHU216HW,2013-08-05 04:49:00,
2013-08-05 00:54:00,57.9,47.5,29.96,WNW,293,1.3,3.8,68,0.00,,,0.00,WUHU216HW,2013-08-05 04:54:00,
2013-08-05 00:59:00,57.9,47.5,29.96,WSW,248,0.9,2.5,68,0.00,,,0.00,WUHU216HW,2013-08-05 04:59:00,
2013-08-05 01:05:00,57.9,47.5,29.96,SW,225,0.7,2.5,68,0.00,,,0.00,WUHU216HW,2013-08-05 05:05:00,
2013-08-05 01:10:00,57.8,47.8,29.96,WNW,293,0.7,1.6,69,0.00,,,0.00,WUHU216HW,2013-08-05 05:10:00,
2013-08-05 01:14:00,57.8,47.8,29.96,WNW,293,2.5,3.4,69,0.00,,,0.00,WUHU216HW,2013-08-05 05:14:00,
2013-08-05 01:20:00,57.8,47.8,29.96,West,270,0.9,3.4,69,0.00,,,0.00,WUHU216HW,2013-08-05 05:20:00,
2013-08-05 01:25:00,57.6,47.6,29.96,West,270,0.2,2.9,69,0.00,,,0.00,WUHU216HW,2013-08-05 05:25:00,
2013-08-05 01:30:00,57.4,47.4,29.96,WNW,293,1.1,1.3,69,0.00,,,0.00,WUHU216HW,2013-08-05 05:30:00,
2013-08-05 01:35:00,57.4,47.4,29.96,WNW,293,1.6,1.6,69,0.00,,,0.00,WUHU216HW,2013-08-05 05:35:00,
2013-08-05 01:40:00,57.0,47.4,29.96,West,270,1.1,1.8,70,0.00,,,0.00,WUHU216HW,2013-08-05 05:40:00,
2013-08-05 01:45:00,56.9,47.3,29.96,West,270,0.9,1.8,70,0.00,,,0.00,WUHU216HW,2013-08-05 05:45:00,
2013-08-05 01:50:00,56.9,47.3,29.97,West,270,0.7,1.8,70,0.00,,,0.00,WUHU216HW,2013-08-05 05:50:00,
2013-08-05 01:55:00,56.7,47.5,29.97,WSW,248,0.9,1.8,71,0.00,,,0.00,WUHU216HW,2013-08-05 05:55:00,
2013-08-05 02:00:00,56.7,47.5,29.96,SW,225,1.1,1.3,71,0.00,,,0.00,WUHU216HW,2013-08-05 06:00:00,
2013-08-05 02:05:00,56.7,47.5,29.96,West,270,1.1,1.8,71,0.00,,,0.00,WUHU216HW,2013-08-05 06:05:00,
2013-08-05 02:10:00,56.5,47.3,29.96,SW,225,0.4,1.8,71,0.00,,,0.00,WUHU216HW,2013-08-05 06:10:00,
2013-08-05 02:15:00,56.5,47.3,29.96,WNW,293,0.9,1.8,71,0.00,,,0.00,WUHU216HW,2013-08-05 06:15:00,
2013-08-05 02:21:00,56.3,47.1,29.97,West,270,0.9,1.8,71,0.00,,,0.00,WUHU216HW,2013-08-05 06:21:00,
2013-08-05 02:26:00,56.3,47.1,29.97,SW,225,0.9,1.8,71,0.00,,,0.00,WUHU216HW,2013-08-05 06:26:00,
2013-08-05 02:30:00,56.3,47.1,29.96,SW,225,0.0,1.1,71,0.00,,,0.00,WUHU216HW,2013-08-05 06:30:00,
2013-08-05 02:36:00,56.1,46.9,29.96,West,270,0.0,1.1,71,0.00,,,0.00,WUHU216HW,2013-08-05 06:36:00,
2013-08-05 02:41:00,56.0,46.8,29.96,WNW,293,0.0,0.7,71,0.00,,,0.00,WUHU216HW,2013-08-05 06:41:00,
2013-08-05 02:46:00,56.0,47.2,29.97,West,270,0.9,0.9,72,0.00,,,0.00,WUHU216HW,2013-08-05 06:46:00,
2013-08-05 02:51:00,55.6,46.8,29.97,SSW,203,0.7,1.3,72,0.00,,,0.00,WUHU216HW,2013-08-05 06:51:00,
2013-08-05 02:56:00,55.6,46.8,29.97,SW,225,0.0,1.3,72,0.00,,,0.00,WUHU216HW,2013-08-05 06:56:00,
2013-08-05 03:01:00,55.6,46.8,29.97,SE,135,0.4,1.1,72,0.00,,,0.00,WUHU216HW,2013-08-05 07:01:00,
2013-08-05 03:07:00,55.4,47.0,29.97,South,180,0.0,0.4,73,0.00,,,0.00,WUHU216HW,2013-08-05 07:07:00,
2013-08-05 03:12:00,55.2,46.8,29.97,SSE,158,0.0,0.4,73,0.00,,,0.00,WUHU216HW,2013-08-05 07:12:00,
2013-08-05 03:17:00,55.2,46.8,29.98,SW,225,0.9,1.1,73,0.00,,,0.00,WUHU216HW,2013-08-05 07:17:00,
2013-08-05 03:22:00,55.1,46.7,29.98,SW,225,1.3,2.0,73,0.00,,,0.00,WUHU216HW,2013-08-05 07:22:00,
2013-08-05 03:27:00,54.9,46.9,29.98,West,270,0.9,2.2,74,0.00,,,0.00,WUHU216HW,2013-08-05 07:27:00,
2013-08-05 03:32:00,54.7,46.7,29.98,WSW,248,0.4,2.2,74,0.00,,,0.00,WUHU216HW,2013-08-05 07:32:00,
2013-08-05 03:37:00,54.7,46.7,29.98,WSW,248,0.0,1.6,74,0.00,,,0.00,WUHU216HW,2013-08-05 07:37:00,
2013-08-05 03:42:00,54.7,46.7,29.98,West,270,0.4,1.1,74,0.00,,,0.00,WUHU216HW,2013-08-05 07:42:00,
2013-08-05 03:47:00,54.7,46.7,29.98,SW,225,1.1,1.1,74,0.00,,,0.00,WUHU216HW,2013-08-05 07:47:00,
2013-08-05 03:52:00,54.5,46.5,29.98,SW,225,0.4,1.1,74,0.00,,,0.00,WUHU216HW,2013-08-05 07:52:00,
2013-08-05 03:57:00,54.5,46.5,29.98,WSW,248,0.0,1.1,74,0.00,,,0.00,WUHU216HW,2013-08-05 07:57:00,
2013-08-05 03:58:00,54.5,46.5,29.98,WSW,248,0.0,1.1,74,0.00,,,0.00,WUHU216HW,2013-08-05 07:58:00,
2013-08-05 04:03:00,54.5,46.5,29.98,WSW,248,0.0,0.7,74,0.00,,,0.00,WUHU216HW,2013-08-05 08:03:00,
2013-08-05 04:08:00,54.5,46.8,29.98,WSW,248,0.4,0.7,75,0.00,,,0.00,WUHU216HW,2013-08-05 08:08:00,
2013-08-05 04:13:00,54.3,46.6,29.98,SW,225,0.4,1.1,75,0.00,,,0.00,WUHU216HW,2013-08-05 08:13:00,
2013-08-05 04:18:00,54.2,46.9,29.98,WSW,248,0.4,1.1,76,0.00,,,0.00,WUHU216HW,2013-08-05 08:18:00,
2013-08-05 04:23:00,54.0,46.7,29.98,SW,225,0.7,1.3,76,0.00,,,0.00,WUHU216HW,2013-08-05 08:23:00,
2013-08-05 04:28:00,54.0,46.7,29.99,SSW,203,0.7,1.6,76,0.00,,,0.00,WUHU216HW,2013-08-05 08:28:00,
2013-08-05 04:34:00,53.8,46.5,29.99,SSW,203,0.2,1.6,76,0.00,,,0.00,WUHU216HW,2013-08-05 08:34:00,
2013-08-05 04:39:00,53.4,47.1,29.99,West,270,0.4,1.3,79,0.00,,,0.00,WUHU216HW,2013-08-05 08:39:00,
2013-08-05 04:44:00,53.3,46.7,29.99,WSW,248,1.3,1.8,78,0.00,,,0.00,WUHU216HW,2013-08-05 08:44:00,
2013-08-05 04:49:00,53.1,46.8,29.99,WSW,248,0.7,2.0,79,0.00,,,0.00,WUHU216HW,2013-08-05 08:49:00,
2013-08-05 04:54:00,52.9,46.6,29.99,SW,225,1.1,2.0,79,0.00,,,0.00,WUHU216HW,2013-08-05 08:54:00,
2013-08-05 04:59:00,52.9,46.6,29.99,WSW,248,1.8,2.0,79,0.00,,,0.00,WUHU216HW,2013-08-05 08:59:00,
2013-08-05 05:04:00,52.7,46.7,29.99,West,270,2.2,4.3,80,0.00,,,0.00,WUHU216HW,2013-08-05 09:04:00,
2013-08-05 05:09:00,52.7,47.1,29.99,WSW,248,1.6,4.3,81,0.00,,,0.00,WUHU216HW,2013-08-05 09:09:00,
2013-08-05 05:14:00,52.7,46.7,29.99,West,270,1.8,3.4,80,0.00,,,0.00,WUHU216HW,2013-08-05 09:14:00,
2013-08-05 05:20:00,52.7,47.1,29.99,West,270,2.0,3.4,81,0.00,,,0.00,WUHU216HW,2013-08-05 09:20:00,
2013-08-05 05:25:00,52.7,47.1,30.00,SW,225,1.1,2.0,81,0.00,,,0.00,WUHU216HW,2013-08-05 09:25:00,
2013-08-05 05:30:00,52.7,47.1,30.00,SSE,158,0.7,3.4,81,0.00,,,0.00,WUHU216HW,2013-08-05 09:30:00,
2013-08-05 05:36:00,52.5,46.9,30.00,SW,225,1.3,2.5,81,0.00,,,0.00,WUHU216HW,2013-08-05 09:36:00,
2013-08-05 05:41:00,52.5,46.5,30.00,WSW,248,1.8,2.7,80,0.00,,,0.00,WUHU216HW,2013-08-05 09:41:00,
2013-08-05 05:46:00,52.5,46.5,30.00,WSW,248,2.0,2.7,80,0.00,,,0.00,WUHU216HW,2013-08-05 09:46:00,
2013-08-05 05:51:00,52.5,46.5,30.00,SW,225,0.4,2.0,80,0.00,,,0.00,WUHU216HW,2013-08-05 09:51:00,
2013-08-05 05:56:00,52.4,46.8,30.00,WNW,293,0.7,2.0,81,0.00,,,0.00,WUHU216HW,2013-08-05 09:56:00,
2013-08-05 06:01:00,52.4,46.8,30.00,WSW,248,0.9,2.0,81,0.00,,,0.00,WUHU216HW,2013-08-05 10:01:00,
2013-08-05 06:06:00,52.4,46.8,30.01,West,270,0.0,2.0,81,0.00,,,0.00,WUHU216HW,2013-08-05 10:06:00,
2013-08-05 06:11:00,52.4,46.4,30.01,WSW,248,0.0,1.3,80,0.00,,,0.00,WUHU216HW,2013-08-05 10:11:00,
2013-08-05 06:17:00,52.4,46.8,30.01,West,270,0.0,0.4,81,0.00,,,0.00,WUHU216HW,2013-08-05 10:17:00,
2013-08-05 06:21:00,52.4,46.4,30.01,West,270,0.0,0.4,80,0.00,,,0.00,WUHU216HW,2013-08-05 10:21:00,
2013-08-05 06:27:00,52.4,46.8,30.01,WSW,248,0.4,0.4,81,0.00,,,0.00,WUHU216HW,2013-08-05 10:27:00,
2013-08-05 06:32:00,52.4,46.8,30.01,West,270,0.2,0.9,81,0.00,,,0.00,WUHU216HW,2013-08-05 10:32:00,
2013-08-05 06:38:00,52.5,46.9,30.01,WSW,248,0.0,0.9,81,0.00,,,0.00,WUHU216HW,2013-08-05 10:38:00,
2013-08-05 06:43:00,52.5,46.9,30.01,West,270,0.7,0.9,81,0.00,,,0.00,WUHU216HW,2013-08-05 10:43:00,
2013-08-05 06:48:00,52.7,47.1,30.01,WNW,293,0.4,0.9,81,0.00,,,0.00,WUHU216HW,2013-08-05 10:48:00,
2013-08-05 06:53:00,52.7,47.1,30.01,West,270,0.7,0.9,81,0.00,,,0.00,WUHU216HW,2013-08-05 10:53:00,
2013-08-05 06:58:00,52.9,46.9,30.01,SW,225,0.7,0.9,80,0.00,,,0.00,WUHU216HW,2013-08-05 10:58:00,
2013-08-05 07:03:00,52.9,46.9,30.02,NNW,338,0.4,0.9,80,0.00,,,0.00,WUHU216HW,2013-08-05 11:03:00,
2013-08-05 07:08:00,53.1,47.5,30.02,WNW,293,0.4,1.1,81,0.00,,,0.00,WUHU216HW,2013-08-05 11:08:00,
2013-08-05 07:13:00,53.3,47.6,30.02,WNW,293,1.3,1.3,81,0.00,,,0.00,WUHU216HW,2013-08-05 11:13:00,
2013-08-05 07:18:00,53.3,47.6,30.02,NNW,338,0.2,1.3,81,0.00,,,0.00,WUHU216HW,2013-08-05 11:18:00,
2013-08-05 07:24:00,53.4,47.7,30.02,WSW,248,1.1,1.6,81,0.00,,,0.00,WUHU216HW,2013-08-05 11:24:00,
2013-08-05 07:29:00,53.6,47.9,30.02,West,270,1.1,1.6,81,0.00,,,0.00,WUHU216HW,2013-08-05 11:29:00,
2013-08-05 07:34:00,53.6,47.9,30.02,NNE,23,0.0,1.1,81,0.00,,,0.00,WUHU216HW,2013-08-05 11:34:00,
2013-08-05 07:39:00,54.0,48.3,30.02,NNW,338,0.9,1.1,81,0.00,,,0.00,WUHU216HW,2013-08-05 11:39:00,
2013-08-05 07:44:00,54.2,48.5,30.02,NW,315,0.0,2.2,81,0.00,,,0.00,WUHU216HW,2013-08-05 11:44:00,
2013-08-05 07:50:00,54.3,48.6,30.02,NNW,338,0.9,2.2,81,0.00,,,0.00,WUHU216HW,2013-08-05 11:50:00,
2013-08-05 07:55:00,54.5,48.8,30.02,West,270,0.4,1.1,81,0.00,,,0.00,WUHU216HW,2013-08-05 11:55:00,
2013-08-05 08:00:00,54.9,49.2,30.03,West,270,1.1,1.1,81,0.00,,,0.00,WUHU216HW,2013-08-05 12:00:00,
2013-08-05 08:05:00,55.1,49.4,30.03,WNW,293,1.8,2.0,81,0.00,,,0.00,WUHU216HW,2013-08-05 12:05:00,
2013-08-05 08:10:00,55.4,49.4,30.03,WNW,293,1.1,2.2,80,0.00,,,0.00,WUHU216HW,2013-08-05 12:10:00,
2013-08-05 08:15:00,55.6,49.6,30.03,WNW,293,1.1,2.2,80,0.00,,,0.00,WUHU216HW,2013-08-05 12:15:00,
2013-08-05 08:21:00,56.0,49.6,30.03,NNW,338,1.1,2.2,79,0.00,,,0.00,WUHU216HW,2013-08-05 12:21:00,
2013-08-05 08:26:00,56.1,49.7,30.03,WNW,293,1.8,1.8,79,0.00,,,0.00,WUHU216HW,2013-08-05 12:26:00,
2013-08-05 08:31:00,56.3,49.9,30.03,WNW,293,3.4,3.4,79,0.00,,,0.00,WUHU216HW,2013-08-05 12:31:00,
2013-08-05 08:35:00,56.7,50.0,30.03,NNW,338,1.8,3.4,78,0.00,,,0.00,WUHU216HW,2013-08-05 12:35:00,
2013-08-05 08:41:00,56.9,49.5,30.03,West,270,1.3,3.4,76,0.00,,,0.00,WUHU216HW,2013-08-05 12:41:00,
2013-08-05 08:47:00,57.0,49.6,30.03,NW,315,1.3,3.4,76,0.00,,,0.00,WUHU216HW,2013-08-05 12:47:00,
2013-08-05 08:52:00,57.4,48.9,30.03,WSW,248,0.9,2.5,73,0.00,,,0.00,WUHU216HW,2013-08-05 12:52:00,
2013-08-05 08:57:00,57.8,48.9,30.03,WSW,248,0.4,3.8,72,0.00,,,0.00,WUHU216HW,2013-08-05 12:57:00,
2013-08-05 09:02:00,57.9,49.4,30.03,WNW,293,0.4,4.9,73,0.00,,,0.00,WUHU216HW,2013-08-05 13:02:00,
2013-08-05 09:07:00,58.3,49.4,30.03,NNW,338,1.6,4.9,72,0.00,,,0.00,WUHU216HW,2013-08-05 13:07:00,
2013-08-05 09:12:00,58.5,48.9,30.03,North,0,2.2,2.5,70,0.00,,,0.00,WUHU216HW,2013-08-05 13:12:00,
2013-08-05 09:17:00,58.8,49.5,30.03,NNW,338,0.4,2.5,71,0.00,,,0.00,WUHU216HW,2013-08-05 13:17:00,
2013-08-05 09:22:00,59.0,49.4,30.03,WNW,293,1.1,4.7,70,0.00,,,0.00,WUHU216HW,2013-08-05 13:22:00,
2013-08-05 09:27:00,59.2,49.6,30.03,South,180,1.6,4.7,70,0.00,,,0.00,WUHU216HW,2013-08-05 13:27:00,
2013-08-05 09:32:00,59.4,49.7,30.03,WSW,248,0.7,2.0,70,0.00,,,0.00,WUHU216HW,2013-08-05 13:32:00,
2013-08-05 09:37:00,59.7,49.7,30.03,NW,315,1.6,1.8,69,0.00,,,0.00,WUHU216HW,2013-08-05 13:37:00,
2013-08-05 09:43:00,59.9,49.8,30.03,NW,315,1.8,2.5,69,0.00,,,0.00,WUHU216HW,2013-08-05 13:43:00,
2013-08-05 09:48:00,60.3,49.4,30.03,NW,315,0.7,2.5,67,0.00,,,0.00,WUHU216HW,2013-08-05 13:48:00,
2013-08-05 09:53:00,60.5,49.6,30.03,SSW,203,0.7,2.2,67,0.00,,,0.00,WUHU216HW,2013-08-05 13:53:00,
2013-08-05 09:57:00,60.8,49.5,30.04,ESE,113,1.8,3.4,66,0.00,,,0.00,WUHU216HW,2013-08-05 13:57:00,
2013-08-05 10:03:00,61.0,48.9,30.04,NNE,23,1.1,3.4,64,0.00,,,0.00,WUHU216HW,2013-08-05 14:03:00,
2013-08-05 10:08:00,61.2,48.2,30.04,NW,315,1.8,3.1,62,0.00,,,0.00,WUHU216HW,2013-08-05 14:08:00,
2013-08-05 10:13:00,61.5,48.5,30.03,NW,315,1.1,3.1,62,0.00,,,0.00,WUHU216HW,2013-08-05 14:13:00,
2013-08-05 10:18:00,61.7,48.3,30.04,West,270,1.1,1.8,61,0.00,,,0.00,WUHU216HW,2013-08-05 14:18:00,
2013-08-05 10:23:00,61.7,47.8,30.04,NW,315,1.6,1.8,60,0.00,,,0.00,WUHU216HW,2013-08-05 14:23:00,
2013-08-05 10:28:00,62.1,47.3,30.04,SSW,203,1.8,3.4,58,0.00,,,0.00,WUHU216HW,2013-08-05 14:28:00,
2013-08-05 10:33:00,62.3,47.0,30.04,SE,135,0.7,3.4,57,0.00,,,0.00,WUHU216HW,2013-08-05 14:33:00,
2013-08-05 10:39:00,62.4,46.6,30.03,ESE,113,2.5,2.5,56,0.00,,,0.00,WUHU216HW,2013-08-05 14:39:00,
2013-08-05 10:44:00,62.4,46.1,30.03,West,270,4.0,4.0,55,0.00,,,0.00,WUHU216HW,2013-08-05 14:44:00,
2013-08-05 10:49:00,62.4,45.6,30.03,WNW,293,1.6,4.0,54,0.00,,,0.00,WUHU216HW,2013-08-05 14:49:00,
2013-08-05 10:54:00,62.8,47.0,30.03,NNE,23,1.3,4.0,56,0.00,,,0.00,WUHU216HW,2013-08-05 14:54:00,
2013-08-05 10:59:00,63.0,47.6,30.03,NNW,338,1.1,1.8,57,0.00,,,0.00,WUHU216HW,2013-08-05 14:59:00,
2013-08-05 11:05:00,63.2,45.9,30.03,NE,45,1.1,1.8,53,0.00,,,0.00,WUHU216HW,2013-08-05 15:05:00,
2013-08-05 11:10:00,63.3,47.0,30.03,NNW,338,1.1,3.4,55,0.00,,,0.00,WUHU216HW,2013-08-05 15:10:00,
2013-08-05 11:15:00,63.5,46.1,30.03,NW,315,4.3,4.3,53,0.00,,,0.00,WUHU216HW,2013-08-05 15:15:00,
2013-08-05 11:20:00,63.7,46.8,30.03,WNW,293,1.8,4.3,54,0.00,,,0.00,WUHU216HW,2013-08-05 15:20:00,
2013-08-05 11:25:00,63.9,46.5,30.03,SSE,158,3.4,4.3,53,0.00,,,0.00,WUHU216HW,2013-08-05 15:25:00,
2013-08-05 11:30:00,64.1,46.7,30.03,NW,315,1.8,3.4,53,0.00,,,0.00,WUHU216HW,2013-08-05 15:30:00,
2013-08-05 11:35:00,64.2,47.3,30.03,NW,315,3.4,3.4,54,0.00,,,0.00,WUHU216HW,2013-08-05 15:35:00,
2013-08-05 11:40:00,64.4,47.0,30.03,NW,315,2.2,3.4,53,0.00,,,0.00,WUHU216HW,2013-08-05 15:40:00,
2013-08-05 11:46:00,64.4,47.5,30.03,ENE,68,6.3,6.3,54,0.00,,,0.00,WUHU216HW,2013-08-05 15:46:00,
2013-08-05 11:51:00,64.6,47.7,30.04,NW,315,2.0,6.3,54,0.00,,,0.00,WUHU216HW,2013-08-05 15:51:00,
2013-08-05 11:57:00,64.8,47.3,30.03,West,270,1.1,6.3,53,0.00,,,0.00,WUHU216HW,2013-08-05 15:57:00,
2013-08-05 12:02:00,64.8,47.3,30.03,NNW,338,2.5,2.5,53,0.00,,,0.00,WUHU216HW,2013-08-05 16:02:00,
2013-08-05 12:07:00,65.0,47.5,30.03,West,270,4.0,4.0,53,0.00,,,0.00,WUHU216HW,2013-08-05 16:07:00,
2013-08-05 12:13:00,64.8,47.3,30.03,North,0,4.0,4.0,53,0.00,,,0.00,WUHU216HW,2013-08-05 16:13:00,
2013-08-05 12:17:00,64.8,47.3,30.03,WNW,293,1.6,4.0,53,0.00,,,0.00,WUHU216HW,2013-08-05 16:17:00,
2013-08-05 12:23:00,65.1,48.1,30.03,SW,225,1.8,4.0,54,0.00,,,0.00,WUHU216HW,2013-08-05 16:23:00,
2013-08-05 12:28:00,65.3,47.8,30.03,SSW,203,0.7,4.3,53,0.00,,,0.00,WUHU216HW,2013-08-05 16:28:00,
2013-08-05 12:33:00,65.5,48.0,30.03,SW,225,1.1,4.3,53,0.00,,,0.00,WUHU216HW,2013-08-05 16:33:00,
2013-08-05 12:38:00,65.7,47.7,30.03,NNW,338,3.6,3.6,52,0.00,,,0.00,WUHU216HW,2013-08-05 16:38:00,
2013-08-05 12:43:00,65.9,48.4,30.03,NW,315,0.9,3.6,53,0.00,,,0.00,WUHU216HW,2013-08-05 16:43:00,
2013-08-05 12:48:00,66.0,48.5,30.02,NNW,338,0.4,3.6,53,0.00,,,0.00,WUHU216HW,2013-08-05 16:48:00,
2013-08-05 12:54:00,66.2,48.6,30.02,SSE,158,1.8,1.8,53,0.00,,,0.00,WUHU216HW,2013-08-05 16:54:00,
2013-08-05 12:59:00,66.4,47.2,30.02,NW,315,2.2,5.4,50,0.00,,,0.00,WUHU216HW,2013-08-05 16:59:00,
2013-08-05 13:04:00,66.4,47.8,30.02,SW,225,1.8,5.4,51,0.00,,,0.00,WUHU216HW,2013-08-05 17:04:00,
2013-08-05 13:09:00,66.6,48.5,30.02,NNW,338,1.3,2.2,52,0.00,,,0.00,WUHU216HW,2013-08-05 17:09:00,
2013-08-05 13:14:00,66.8,48.1,30.01,WNW,293,2.5,2.5,51,0.00,,,0.00,WUHU216HW,2013-08-05 17:14:00,
2013-08-05 13:20:00,66.8,47.6,30.01,SSW,203,1.1,5.1,50,0.00,,,0.00,WUHU216HW,2013-08-05 17:20:00,
2013-08-05 13:25:00,66.8,48.1,30.01,South,180,4.0,5.1,51,0.00,,,0.00,WUHU216HW,2013-08-05 17:25:00,
2013-08-05 13:29:00,66.9,47.1,30.01,WSW,248,4.0,4.0,49,0.00,,,0.00,WUHU216HW,2013-08-05 17:29:00,
2013-08-05 13:35:00,67.3,48.6,30.00,West,270,1.6,4.0,51,0.00,,,0.00,WUHU216HW,2013-08-05 17:35:00,
2013-08-05 13:40:00,67.5,48.8,30.00,West,270,3.6,6.5,51,0.00,,,0.00,WUHU216HW,2013-08-05 17:40:00,
2013-08-05 13:45:00,67.8,48.5,30.01,West,270,6.0,6.7,50,0.00,,,0.00,WUHU216HW,2013-08-05 17:45:00,
2013-08-05 13:50:00,67.8,49.1,30.00,West,270,1.1,6.7,51,0.00,,,0.00,WUHU216HW,2013-08-05 17:50:00,
2013-08-05 13:55:00,67.8,49.1,30.00,SW,225,4.0,6.0,51,0.00,,,0.00,WUHU216HW,2013-08-05 17:55:00,
2013-08-05 14:00:00,68.2,48.9,30.00,West,270,1.3,4.0,50,0.00,,,0.00,WUHU216HW,2013-08-05 18:00:00,
2013-08-05 14:05:00,68.2,49.4,30.00,WSW,248,0.4,4.0,51,0.00,,,0.00,WUHU216HW,2013-08-05 18:05:00,
2013-08-05 14:10:00,68.6,49.8,30.00,South,180,2.9,2.9,51,0.00,,,0.00,WUHU216HW,2013-08-05 18:10:00,
2013-08-05 14:15:00,68.7,49.4,30.00,NW,315,0.4,2.9,50,0.00,,,0.00,WUHU216HW,2013-08-05 18:15:00,
2013-08-05 14:20:00,68.9,50.1,30.00,West,270,1.3,2.9,51,0.00,,,0.00,WUHU216HW,2013-08-05 18:20:00,
2013-08-05 14:25:00,69.3,49.4,30.00,WSW,248,3.4,3.4,49,0.00,,,0.00,WUHU216HW,2013-08-05 18:25:00,
2013-08-05 14:30:00,69.3,49.4,30.00,NNW,338,4.5,4.5,49,0.00,,,0.00,WUHU216HW,2013-08-05 18:30:00,
2013-08-05 14:36:00,69.5,50.1,30.00,West,270,1.1,4.5,50,0.00,,,0.00,WUHU216HW,2013-08-05 18:36:00,
2013-08-05 14:41:00,69.5,50.1,30.00,WSW,248,2.2,4.5,50,0.00,,,0.00,WUHU216HW,2013-08-05 18:41:00,
2013-08-05 14:46:00,69.5,49.5,29.99,NE,45,1.8,4.5,49,0.00,,,0.00,WUHU216HW,2013-08-05 18:46:00,
2013-08-05 14:51:00,69.6,49.6,29.99,NNW,338,2.0,4.0,49,0.00,,,0.00,WUHU216HW,2013-08-05 18:51:00,
2013-08-05 14:56:00,69.8,49.8,29.99,WNW,293,0.4,2.9,49,0.00,,,0.00,WUHU216HW,2013-08-05 18:56:00,
2013-08-05 15:01:00,70.2,50.2,29.99,WNW,293,2.5,2.9,49,0.00,,,0.00,WUHU216HW,2013-08-05 19:01:00,
2013-08-05 15:06:00,70.2,50.7,29.99,North,0,4.0,4.0,50,0.00,,,0.00,WUHU216HW,2013-08-05 19:06:00,
2013-08-05 15:12:00,70.5,51.0,29.99,NNW,338,1.6,4.0,50,0.00,,,0.00,WUHU216HW,2013-08-05 19:12:00,
2013-08-05 15:17:00,70.5,50.5,29.99,West,270,1.6,4.0,49,0.00,,,0.00,WUHU216HW,2013-08-05 19:17:00,
2013-08-05 15:22:00,70.9,49.7,29.99,SW,225,4.7,4.7,47,0.00,,,0.00,WUHU216HW,2013-08-05 19:22:00,
2013-08-05 15:27:00,71.1,49.3,29.99,WSW,248,3.8,8.7,46,0.00,,,0.00,WUHU216HW,2013-08-05 19:27:00,
2013-08-05 15:32:00,71.3,50.6,29.99,North,0,0.9,8.7,48,0.00,,,0.00,WUHU216HW,2013-08-05 19:32:00,
2013-08-05 15:38:00,71.3,50.0,29.99,West,270,0.4,3.8,47,0.00,,,0.00,WUHU216HW,2013-08-05 19:38:00,
2013-08-05 15:43:00,71.1,50.4,29.99,South,180,2.0,2.5,48,0.00,,,0.00,WUHU216HW,2013-08-05 19:43:00,
2013-08-05 15:48:00,71.3,50.6,29.99,SW,225,2.2,2.9,48,0.00,,,0.00,WUHU216HW,2013-08-05 19:48:00,
2013-08-05 15:53:00,71.8,49.9,29.98,North,0,3.6,3.8,46,0.00,,,0.00,WUHU216HW,2013-08-05 19:53:00,
2013-08-05 15:58:00,71.8,50.5,29.98,East,90,2.0,3.8,47,0.00,,,0.00,WUHU216HW,2013-08-05 19:58:00,
2013-08-05 16:03:00,71.8,50.5,29.98,NNW,338,0.4,2.7,47,0.00,,,0.00,WUHU216HW,2013-08-05 20:03:00,
2013-08-05 16:08:00,71.8,49.9,29.97,NNW,338,1.1,2.7,46,0.00,,,0.00,WUHU216HW,2013-08-05 20:08:00,
2013-08-05 16:14:00,72.2,49.0,29.97,SW,225,5.1,5.1,44,0.00,,,0.00,WUHU216HW,2013-08-05 20:14:00,
2013-08-05 16:19:00,72.5,49.9,29.98,WNW,293,2.7,5.1,45,0.00,,,0.00,WUHU216HW,2013-08-05 20:19:00,
2013-08-05 16:24:00,72.7,50.1,29.97,East,90,1.1,2.7,45,0.00,,,0.00,WUHU216HW,2013-08-05 20:24:00,
2013-08-05 16:29:00,72.5,50.5,29.97,SW,225,1.8,2.7,46,0.00,,,0.00,WUHU216HW,2013-08-05 20:29:00,
2013-08-05 16:34:00,72.5,49.9,29.97,West,270,0.7,2.0,45,0.00,,,0.00,WUHU216HW,2013-08-05 20:34:00,
2013-08-05 16:39:00,72.5,50.5,29.97,West,270,1.8,2.0,46,0.00,,,0.00,WUHU216HW,2013-08-05 20:39:00,
2013-08-05 16:44:00,72.9,50.9,29.97,West,270,1.1,1.8,46,0.00,,,0.00,WUHU216HW,2013-08-05 20:44:00,
2013-08-05 16:49:00,73.6,50.9,29.97,NW,315,0.7,2.5,45,0.00,,,0.00,WUHU216HW,2013-08-05 20:49:00,
2013-08-05 16:55:00,73.6,50.9,29.97,WSW,248,1.8,2.5,45,0.00,,,0.00,WUHU216HW,2013-08-05 20:55:00,
2013-08-05 17:00:00,73.8,51.1,29.97,WSW,248,2.5,4.0,45,0.00,,,0.00,WUHU216HW,2013-08-05 21:00:00,
2013-08-05 17:05:00,74.1,49.5,29.98,WNW,293,3.1,4.0,42,0.00,,,0.00,WUHU216HW,2013-08-05 21:05:00,
2013-08-05 17:10:00,74.3,51.6,29.98,SW,225,2.5,4.0,45,0.00,,,0.00,WUHU216HW,2013-08-05 21:10:00,
2013-08-05 17:15:00,74.5,52.4,29.98,West,270,1.8,3.1,46,0.00,,,0.00,WUHU216HW,2013-08-05 21:15:00,
2013-08-05 17:20:00,74.7,51.9,29.98,NNW,338,0.9,2.5,45,0.00,,,0.00,WUHU216HW,2013-08-05 21:20:00,
2013-08-05 17:25:00,75.2,51.8,29.98,NW,315,1.6,1.8,44,0.00,,,0.00,WUHU216HW,2013-08-05 21:25:00,
2013-08-05 17:30:00,75.8,50.3,29.98,West,270,5.8,5.8,41,0.00,,,0.00,WUHU216HW,2013-08-05 21:30:00,
2013-08-05 17:35:00,75.6,51.5,29.98,NW,315,2.7,5.8,43,0.00,,,0.00,WUHU216HW,2013-08-05 21:35:00,
2013-08-05 17:40:00,75.8,52.9,29.98,NNW,338,1.8,4.3,45,0.00,,,0.00,WUHU216HW,2013-08-05 21:40:00,
2013-08-05 17:46:00,75.8,52.3,29.98,ENE,68,0.9,1.8,44,0.00,,,0.00,WUHU216HW,2013-08-05 21:46:00,
2013-08-05 17:51:00,75.8,52.3,29.98,West,270,0.7,1.8,44,0.00,,,0.00,WUHU216HW,2013-08-05 21:51:00,
2013-08-05 17:56:00,75.8,52.9,29.98,NW,315,0.4,0.9,45,0.00,,,0.00,WUHU216HW,2013-08-05 21:56:00,
2013-08-05 18:01:00,75.8,52.9,29.98,WNW,293,0.4,0.7,45,0.00,,,0.00,WUHU216HW,2013-08-05 22:01:00,
2013-08-05 18:06:00,76.1,53.2,29.98,NNW,338,0.7,1.8,45,0.00,,,0.00,WUHU216HW,2013-08-05 22:06:00,
2013-08-05 18:12:00,76.3,53.4,29.98,West,270,0.7,1.3,45,0.00,,,0.00,WUHU216HW,2013-08-05 22:12:00,
2013-08-05 18:17:00,76.3,53.4,29.98,NW,315,0.0,1.3,45,0.00,,,0.00,WUHU216HW,2013-08-05 22:17:00,
2013-08-05 18:22:00,76.1,52.6,29.99,WNW,293,0.9,1.8,44,0.00,,,0.00,WUHU216HW,2013-08-05 22:22:00,
2013-08-05 18:27:00,75.2,52.4,29.99,NW,315,1.1,1.8,45,0.00,,,0.00,WUHU216HW,2013-08-05 22:27:00,
2013-08-05 18:33:00,75.0,52.2,29.99,NNW,338,1.6,1.6,45,0.00,,,0.00,WUHU216HW,2013-08-05 22:33:00,
2013-08-05 18:38:00,74.3,52.2,29.99,North,0,0.4,1.6,46,0.00,,,0.00,WUHU216HW,2013-08-05 22:38:00,
2013-08-05 18:43:00,73.8,52.3,29.99,North,0,0.4,1.6,47,0.00,,,0.00,WUHU216HW,2013-08-05 22:43:00,
2013-08-05 18:48:00,73.6,52.1,29.99,WNW,293,0.4,0.9,47,0.00,,,0.00,WUHU216HW,2013-08-05 22:48:00,
2013-08-05 18:53:00,73.2,52.4,29.99,WNW,293,0.0,1.3,48,0.00,,,0.00,WUHU216HW,2013-08-05 22:53:00,
2013-08-05 18:58:00,73.2,52.4,29.99,WNW,293,1.1,1.3,48,0.00,,,0.00,WUHU216HW,2013-08-05 22:58:00,
2013-08-05 19:03:00,72.9,52.1,30.00,WNW,293,0.7,1.1,48,0.00,,,0.00,WUHU216HW,2013-08-05 23:03:00,
2013-08-05 19:08:00,72.5,52.3,30.00,WNW,293,1.6,1.6,49,0.00,,,0.00,WUHU216HW,2013-08-05 23:08:00,
2013-08-05 19:13:00,72.3,52.7,30.00,WNW,293,0.2,1.6,50,0.00,,,0.00,WUHU216HW,2013-08-05 23:13:00,
2013-08-05 19:18:00,71.8,52.2,30.00,West,270,0.9,1.1,50,0.00,,,0.00,WUHU216HW,2013-08-05 23:18:00,
2013-08-05 19:24:00,71.4,52.4,30.00,WNW,293,0.4,1.6,51,0.00,,,0.00,WUHU216HW,2013-08-05 23:24:00,
2013-08-05 19:29:00,71.1,52.7,30.00,West,270,0.7,1.6,52,0.00,,,0.00,WUHU216HW,2013-08-05 23:29:00,
2013-08-05 19:34:00,70.9,52.5,30.00,WSW,248,0.9,0.9,52,0.00,,,0.00,WUHU216HW,2013-08-05 23:34:00,
2013-08-05 19:39:00,70.5,52.7,30.00,West,270,0.0,0.9,53,0.00,,,0.00,WUHU216HW,2013-08-05 23:39:00,
2013-08-05 19:44:00,70.4,53.1,30.00,West,270,0.7,0.9,54,0.00,,,0.00,WUHU216HW,2013-08-05 23:44:00,
2013-08-05 19:50:00,70.0,52.7,30.01,West,270,0.0,0.7,54,0.00,,,0.00,WUHU216HW,2013-08-05 23:50:00,
2013-08-05 19:55:00,69.8,53.0,30.01,West,270,0.0,0.0,55,0.00,,,0.00,WUHU216HW,2013-08-05 23:55:00,
2013-08-05 20:00:00,69.3,53.1,30.01,SE,135,0.9,0.9,56,0.00,,,0.00,WUHU216HW,2013-08-06 00:00:00,
2013-08-05 20:05:00,68.9,53.2,30.01,SE,135,0.7,0.9,57,0.00,,,0.00,WUHU216HW,2013-08-06 00:05:00,
2013-08-05 20:10:00,68.6,53.4,30.01,SE,135,0.4,1.1,58,0.00,,,0.00,WUHU216HW,2013-08-06 00:10:00,
2013-08-05 20:15:00,68.4,52.7,30.01,SE,135,0.0,1.1,57,0.00,,,0.00,WUHU216HW,2013-08-06 00:15:00,
2013-08-05 20:20:00,68.0,52.8,30.01,SE,135,0.0,0.7,58,0.00,,,0.00,WUHU216HW,2013-08-06 00:20:00,
2013-08-05 20:25:00,67.8,53.1,30.01,SE,135,0.0,0.0,59,0.00,,,0.00,WUHU216HW,2013-08-06 00:25:00,
2013-08-05 20:30:00,67.5,52.8,30.01,SE,135,0.0,0.0,59,0.00,,,0.00,WUHU216HW,2013-08-06 00:30:00,
2013-08-05 20:35:00,67.3,53.1,30.01,SE,135,0.7,0.7,60,0.00,,,0.00,WUHU216HW,2013-08-06 00:35:00,
2013-08-05 20:41:00,67.1,52.9,30.02,SE,135,0.2,0.7,60,0.00,,,0.00,WUHU216HW,2013-08-06 00:41:00,
2013-08-05 20:46:00,66.9,53.2,30.02,SE,135,0.0,0.9,61,0.00,,,0.00,WUHU216HW,2013-08-06 00:46:00,
2013-08-05 20:51:00,66.8,53.1,30.02,SE,135,0.0,0.9,61,0.00,,,0.00,WUHU216HW,2013-08-06 00:51:00,
2013-08-05 20:56:00,66.6,53.3,30.02,SE,135,0.0,0.0,62,0.00,,,0.00,WUHU216HW,2013-08-06 00:56:00,
2013-08-05 21:02:00,66.4,53.2,30.02,ESE,113,0.0,0.7,62,0.00,,,0.00,WUHU216HW,2013-08-06 01:02:00,
2013-08-05 21:07:00,66.2,53.4,30.02,ESE,113,0.0,0.7,63,0.00,,,0.00,WUHU216HW,2013-08-06 01:07:00,
2013-08-05 21:12:00,66.0,53.2,30.02,ESE,113,0.0,0.2,63,0.00,,,0.00,WUHU216HW,2013-08-06 01:12:00,
2013-08-05 21:17:00,65.9,53.5,30.02,ESE,113,0.0,0.2,64,0.00,,,0.00,WUHU216HW,2013-08-06 01:17:00,
2013-08-05 21:22:00,65.5,53.2,30.02,ESE,113,0.0,0.2,64,0.00,,,0.00,WUHU216HW,2013-08-06 01:22:00,
2013-08-05 21:27:00,65.3,53.0,30.02,ESE,113,0.0,0.2,64,0.00,,,0.00,WUHU216HW,2013-08-06 01:27:00,
2013-08-05 21:32:00,65.3,53.4,30.02,ESE,113,0.0,0.0,65,0.00,,,0.00,WUHU216HW,2013-08-06 01:32:00,
2013-08-05 21:38:00,65.1,53.2,30.02,ESE,113,0.0,0.0,65,0.00,,,0.00,WUHU216HW,2013-08-06 01:38:00,
2013-08-05 21:43:00,65.0,53.1,30.02,ESE,113,0.0,0.0,65,0.00,,,0.00,WUHU216HW,2013-08-06 01:43:00,
2013-08-05 21:48:00,65.0,53.1,30.02,ESE,113,0.0,0.0,65,0.00,,,0.00,WUHU216HW,2013-08-06 01:48:00,
2013-08-05 21:54:00,64.8,52.9,30.02,SE,135,0.4,0.4,65,0.00,,,0.00,WUHU216HW,2013-08-06 01:54:00,
2013-08-05 21:59:00,64.6,53.1,30.02,SE,135,0.0,0.7,66,0.00,,,0.00,WUHU216HW,2013-08-06 01:59:00,
2013-08-05 22:04:00,64.6,53.1,30.02,SE,135,0.0,1.1,66,0.00,,,0.00,WUHU216HW,2013-08-06 02:04:00,
2013-08-05 22:09:00,64.2,52.8,30.02,SE,135,0.0,1.1,66,0.00,,,0.00,WUHU216HW,2013-08-06 02:09:00,
2013-08-05 22:14:00,64.2,52.8,30.02,SE,135,0.0,0.0,66,0.00,,,0.00,WUHU216HW,2013-08-06 02:14:00,
2013-08-05 22:19:00,63.9,52.9,30.02,SE,135,0.0,0.0,67,0.00,,,0.00,WUHU216HW,2013-08-06 02:19:00,
2013-08-05 22:25:00,63.9,52.9,30.02,SW,225,0.0,0.0,67,0.00,,,0.00,WUHU216HW,2013-08-06 02:25:00,
2013-08-05 22:30:00,63.7,52.7,30.02,SE,135,0.0,0.0,67,0.00,,,0.00,WUHU216HW,2013-08-06 02:30:00,
2013-08-05 22:35:00,63.5,52.9,30.02,SE,135,0.0,0.0,68,0.00,,,0.00,WUHU216HW,2013-08-06 02:35:00,
2013-08-05 22:40:00,63.3,52.7,30.02,SE,135,0.0,0.0,68,0.00,,,0.00,WUHU216HW,2013-08-06 02:40:00,
2013-08-05 22:45:00,63.2,52.6,30.02,SE,135,0.0,0.0,68,0.00,,,0.00,WUHU216HW,2013-08-06 02:45:00,
2013-08-05 22:50:00,63.2,52.6,30.02,SE,135,0.0,0.0,68,0.00,,,0.00,WUHU216HW,2013-08-06 02:50:00,
2013-08-05 22:56:00,62.8,52.6,30.02,SE,135,0.0,0.0,69,0.00,,,0.00,WUHU216HW,2013-08-06 02:56:00,
2013-08-05 23:01:00,62.8,52.6,30.01,SE,135,0.0,0.0,69,0.00,,,0.00,WUHU216HW,2013-08-06 03:01:00,
2013-08-05 23:06:00,62.6,52.4,30.02,SE,135,0.0,0.0,69,0.00,,,0.00,WUHU216HW,2013-08-06 03:06:00,
2013-08-05 23:11:00,62.4,52.6,30.02,SE,135,0.0,0.0,70,0.00,,,0.00,WUHU216HW,2013-08-06 03:11:00,
2013-08-05 23:16:00,62.3,52.5,30.02,SE,135,0.0,0.0,70,0.00,,,0.00,WUHU216HW,2013-08-06 03:16:00,
2013-08-05 23:21:00,62.1,52.3,30.01,SE,135,0.0,0.0,70,0.00,,,0.00,WUHU216HW,2013-08-06 03:21:00,
2013-08-05 23:26:00,61.7,52.0,30.01,SE,135,0.0,0.0,70,0.00,,,0.00,WUHU216HW,2013-08-06 03:26:00,
2013-08-05 23:32:00,61.5,52.1,30.01,SE,135,0.0,0.0,71,0.00,,,0.00,WUHU216HW,2013-08-06 03:32:00,
2013-08-05 23:37:00,61.5,52.1,30.01,SE,135,0.0,0.0,71,0.00,,,0.00,WUHU216HW,2013-08-06 03:37:00,
2013-08-05 23:42:00,61.4,52.0,30.01,SE,135,0.0,0.0,71,0.00,,,0.00,WUHU216HW,2013-08-06 03:42:00,
2013-08-05 23:47:00,61.2,51.9,30.01,SE,135,0.0,0.0,71,0.00,,,0.00,WUHU216HW,2013-08-06 03:47:00,
2013-08-05 23:52:00,61.0,52.0,30.01,SE,135,0.0,0.0,72,0.00,,,0.00,WUHU216HW,2013-08-06 03:52:00,
2013-08-05 23:57:00,61.0,52.0,30.01,SE,135,0.0,0.0,72,0.00,,,0.00,WUHU216HW,2013-08-06 03:57:00,